User: anonymous   Login
Location: Newark
(3.3223°N, 76.2348°W)
Time: 12:02:17
(UTC+00:00)
Language:

AO-92 - Orbit

View from above orbital plane
View from above orbital plane
View from above satellite
View from above satellite

Ground track
Ground track

The orbit data is extracted from the following two-line orbital elements,

1 43137U 18004AC  20022.47214620 +.00000749 +00000-0 +34035-4 0  9992
2 43137 097.4639 094.5250 0008550 202.7134 157.3726 15.23835912112666
Epoch (UTC): 22 January 2020 11:19:53
Eccentricity: 0.0008550
inclination: 97.4639°
perigee height: 488 km
apogee height: 500 km
right ascension of ascending node: 94.5250°
argument of perigee: 202.7134°
revolutions per day: 15.23835912
mean anomaly at epoch: 157.3726°
orbit number at epoch: 11266

The dashed part of the orbit path shows where the satellite is in the earth's shadow,  

DLR